Location: Unspecified
(41.5000°N, 0.0000°E)
Time: 17:27:15
(UTC+00:00)

A-11 Canister half - Pass Details

Date: 30 June 2019
Orbit: 1526 x 1683 km, 47.3° (Epoch: 22 August)

Event Time Altitude Azimuth Distance (km) Brightness Sun altitude
Exits shadow 02:00:21 28° 216° (SW) 2,632 9.6 -19.9°
Maximum altitude 02:05:54 65° 144° (SE) 1,694 9.1 -19.4°
Drops below altitude 10° 02:15:09 10° 65° (ENE) 3,718 11.8 -18.5°
Sets 02:18:12 0° 63° (ENE) 4,692 12.6 -18.2°
